Reflectivity
-1 3 -10 -20 -20 -20 -20 -20 -16 -20 -20 -20 -20 -20 -20 -20 -20 -20 -20 -20 -20 -20 -20 -20 -20 -20 -20 -20 -20 -20 -20 -20 -20 -20 -20 -20 -20 -20 -20 -20 -20 -20 -20 -20 -20
-19 -14 -20 -20 -20 -20 -20 -20 -20 -20 -20 -20 -20 -20 -20 -20 -20 -20 -20 -20 -20 -20 -20 -20 -20 -20 -20 -20 -20 -20 -20 -20 -20 -20 -20 -20 -20 -20 -20 -20 -20 -20 -20 -20 -20
-20 -20 -20 -20 -20 -20 -20 -20 -20 -20 -20 -20 -20 -20 -20 -20 -20 -20 -20 -20 -20 -20 -20 -20 -20 -20 -20 -20 -20 -20 -20 -20 -20 -20 -20 -20 -20 -20 -20 -20 -20 -20 -20 -20 -20
-20 -20 -20 -20 -20 -14 -19 -20 -20 -20 -20 -20 -20 -20 -20 -20 -20 -20 -20 -20 -20 -20 -20 -20 -20 -20 -20 -20 -20 -20 -20 -20 -20 -20 -20 -20 -20 -20 -20 -20 -20 -20 -20 -20 -20
-3 -5 -20 -20 -20 -20 -20 -20 -20 -20 -20 -20 -20 -12 -20 -20 -20 -20 -11 -20 -18 -7 -15 -20 -20 -20 -20 -20 -20 -20 -20 -20 -20 -20 -20 -20 -20 -20 -20 -20 -20 -20 -20 -20 -20
-20 -15 -20 -20 -20 -20 -20 -20 -20 -20 -20 -20 -20 1 -2 -20 -20 -20 -19 -20 -20 -16 2 -15 -20 -20 -20 -20 -20 -20 -20 -20 -20 -20 -20 -20 -20 -20 -20 -20 -20 -20 -20 -20 -20
-20 -20 -20 -20 -20 -20 -20 -20 -20 -20 -20 -20 -20 6 -19 -20 -20 -20 -20 -16 -13 -7 -2 -10 -15 -20 -20 -20 -20 -20 -20 -20 -20 -20 -20 -20 -20 -20 -20 -20 -20 -20 -20 -20 -20
-20 -20 -20 -20 -20 -20 -20 -20 -20 -20 -20 -20 -20 5 -14 -20 -20 -20 -20 -20 -4 -10 6 -15 -10 -19 -20 -20 -20 -20 -20 -20 -20 -20 -20 -20 -20 -20 -20 -20 -20 -20 -20 -20 -20
-20 -20 -20 -20 -20 -20 -20 -20 -20 -20 -20 -20 -1 -13 -18 -20 -20 -20 -20 -20 -12 18 -6 18 -18 -20 -20 -19 -20 -20 -20 -20 -20 -20 -20 -20 -20 -20 -20 -16 -19 -20 -20 -20 -20
-20 -20 -20 -20 -20 -20 -20 -20 -20 -20 -20 -20 -8 -18 -20 -20 -20 -20 -20 -20 -19 19 27 -0 22 -19 -20 -19 -20 -20 -20 -20 -20 -20 -20 -20 -20 -20 -20 -14 -8 -20 -20 -20 -20
-20 -20 -20 -20 -20 -20 -20 -20 -20 -20 -20 16 14 -20 -20 -20 -20 -20 -20 0 -12 14 39 24 31 19 -20 -20 -20 -20 -20 -20 -20 -20 -20 -20 -20 -20 -11 4 -5 -20 -20 -20 -20
-20 -20 -20 -20 -20 -20 -20 -17 23 5 -5 -20 -20 -20 -20 -20 -20 -20 -20 1 -3 10 28 36 39 31 -8 -20 -20 -20 -20 -20 -20 -20 -20 -20 -20 -20 -20 -20 -10 -20 -20 -20 -20
-20 -20 -20 -20 -20 -20 -20 -20 -20 1 3 -20 -20 -20 -20 -20 -20 -20 -5 2 -11 -19 23 32 37 34 12 -16 -20 -20 -20 -20 -20 -20 -20 -20 -20 -20 -20 -20 -20 -6 -20 -20 -20
-20 -20 -20 -20 -20 -20 -20 -20 -13 -20 -20 -20 -20 1 -14 -20 -20 -20 -20 -14 10 -13 17 28 18 28 18 14 -20 -20 -20 -20 -20 -20 -20 -20 -20 -20 -20 -20 -20 -20 -20 -20 -20
-20 -20 -20 -20 -20 -20 -20 -20 -20 -20 -19 -20 8 20 15 14 -18 -20 -17 -20 -20 -19 27 23 15 27 22 33 8 -17 -20 -20 -17 -1 -14 -18 4 -20 -20 -20 -20 -20 -20 -20 -20
-20 -20 -20 -20 -20 -20 -20 -20 -20 -20 -18 -20 -20 -20 5 13 -9 12 -10 -15 -14 -0 -9 30 31 29 28 11 14 -13 -19 -19 -14 1 14 4 -1 -10 -20 -20 -20 -20 -20 -20 -20
-20 -20 -20 -20 -20 -20 -20 -20 -20 -20 -20 -20 -20 -14 -11 -0 10 8 17 14 19 -12 -5 -1 12 18 19 31 18 27 23 6 5 22 18 10 4 -18 -20 -20 -20 -20 -20 -19 -8
-20 -20 -20 -20 -20 -20 -20 -20 -20 -20 -20 -20 -20 -20 1 21 7 11 -19 -11 39 29 22 -2 1 5 8 20 29 29 32 27 8 -17 3 -1 -12 -18 -20 -20 -20 -20 -20 -20 -20
-20 -20 -20 -20 -20 -18 -18 -6 -20 -20 -20 -20 -20 -20 -20 14 12 -9 7 0 -0 10 -1 2 -0 5 2 11 7 24 38 32 33 1 2 -20 -20 -20 -20 -20 -20 -20 -20 -20 -20
-12 -20 -20 -20 -20 -20 -13 -20 -20 -20 -20 -13 -10 -20 -8 -20 4 -9 -12 -10 -5 2 -3 1 -3 4 -9 14 9 11 21 27 36 27 18 -3 -20 -20 -20 -20 -20 -20 -20 -20 -20
-20 -20 -20 -20 -20 -20 -20 -20 -8 -20 -14 8 15 20 -20 9 14 -3 13 8 27 -17 -20 -17 11 22 25 24 -1 9 31 34 37 32 18 0 -20 -20 -20 -20 -20 -20 -17 -20 -20
1 -20 -20 -20 -20 -20 -20 -20 -20 -20 -20 -2 22 16 4 13 19 -8 11 18 -20 -2 -20 -20 -10 -5 20 -8 7 11 23 36 26 27 25 2 -20 -20 -20 -20 -20 -20 -18 8 -12
-20 -20 -20 -20 -20 -20 10 0 -11 -10 6 10 -4 18 -3 -20 10 2 -2 -20 -20 -14 -20 -20 -20 -14 18 30 15 16 28 14 22 31 34 14 -20 -20 -20 -20 -4 2 2 -11 -20
-10 -20 -20 -20 -14 9 -20 -20 -16 -20 -20 -20 -20 -20 -12 -20 17 10 -19 15 2 -11 -20 -20 -20 0 18 17 18 25 22 7 -3 9 27 25 -17 -20 -14 -11 26 -20 -13 -14 -7
-13 -20 -20 -20 -20 -20 -13 -1 -11 -20 -20 -20 -20 -20 9 6 -17 -17 -20 -20 -2 -12 -20 -20 -20 -19 4 9 10 10 18 13 -1 3 5 -15 -20 -20 -10 31 31 16 -20 -20 -20
-20 -20 -20 -20 -20 -20 -20 -20 -20 -20 9 -20 -7 -20 -20 8 18 14 12 -15 11 24 34 25 -7 7 -17 2 12 12 13 10 -17 -3 -6 -5 -6 -20 19 24 21 31 -18 -20 -20
-20 -20 17 0 -17 -3 -20 -20 -12 9 -20 -20 -14 -15 -20 -20 -20 -2 -14 -20 -12 -9 -20 -3 -8 12 -19 -20 -18 -7 8 5 -16 2 2 9 18 4 -8 -11 35 8 26 25 -20
Wind_Speed
15 13 12 13 14 14 14 14 12 13 14 16 17 18 19 20 20 11 14 10 9 18 14 14 14 11 14 10 9 7 9 13 21 19 23 14 18 4 7 1 2 5 9 18 16
19 17 15 14 12 12 13 14 13 14 13 14 16 18 19 20 16 16 11 15 18 18 14 12 14 11 7 9 8 13 12 23 15 21 17 19 13 8 4 2 1 7 22 23 19
18 19 19 18 16 14 14 12 13 15 15 14 14 16 18 17 8 4 16 2 12 15 21 17 15 14 16 14 18 17 22 16 20 23 21 17 11 8 10 5 5 10 23 23 21
15 15 16 15 16 15 13 13 15 16 15 15 14 14 19 5 9 3 10 18 21 19 14 20 13 14 5 13 18 20 24 21 21 22 16 16 11 8 3 5 11 8 24 25 25
14 14 15 15 15 15 15 14 15 15 15 14 13 11 7 4 12 24 30 19 14 19 11 18 19 16 18 8 17 21 22 21 21 22 17 20 19 7 8 6 6 5 16 18 18
15 16 16 17 17 17 17 17 16 16 16 14 12 7 5 14 6 12 19 21 17 13 17 13 15 19 14 15 21 13 15 20 19 21 21 21 11 3 9 7 6 5 11 17 18
16 17 18 18 18 18 19 20 19 19 18 15 11 5 13 22 15 20 21 20 19 18 18 18 16 20 12 16 20 18 19 21 22 24 21 12 16 10 9 8 7 6 8 16 18
17 18 17 18 19 20 21 21 22 24 20 16 11 6 11 9 11 10 13 21 17 17 18 20 18 20 28 14 15 19 14 19 30 22 20 11 21 11 9 8 10 10 8 10 15
17 18 17 18 19 20 22 25 29 26 18 12 5 6 13 7 4 7 3 8 18 14 14 18 18 21 21 20 14 12 21 25 27 21 17 23 22 10 13 17 13 13 10 10 10
17 19 20 19 20 21 24 29 28 21 8 7 6 4 6 8 6 5 5 5 6 12 16 16 11 13 19 16 22 22 28 22 25 18 22 20 15 19 14 16 17 17 16 10 10
17 19 21 20 22 23 18 8 8 5 5 7 9 11 18 12 9 7 4 2 5 7 17 19 9 18 30 32 31 22 24 24 22 21 20 25 20 16 18 17 18 11 18 16 12
18 19 21 23 23 25 10 4 10 4 11 16 22 28 29 21 20 26 8 2 3 15 14 15 19 19 20 24 27 30 27 28 17 21 21 17 26 16 16 23 23 23 16 21 16
17 18 20 21 25 9 8 4 10 9 6 18 20 15 17 15 28 30 12 8 7 16 17 24 12 18 23 22 25 29 31 33 27 16 24 23 23 16 17 23 23 25 20 14 22
16 17 16 21 8 8 6 13 7 5 4 11 5 5 7 11 9 6 6 11 7 10 13 11 13 23 27 25 23 28 31 29 23 18 16 25 19 18 19 22 21 22 22 17 11
16 17 15 13 5 3 10 8 7 4 5 10 6 5 18 2 3 0 2 6 17 15 9 7 9 24 29 33 26 28 17 25 22 17 22 19 9 14 25 23 29 19 19 11 9
17 17 17 6 3 11 9 8 4 2 9 8 8 14 18 10 2 3 7 2 3 10 19 20 10 3 8 19 27 22 22 20 23 22 20 23 20 22 20 29 26 14 12 12 11
16 18 16 7 5 5 7 4 6 4 10 7 23 18 22 14 8 8 7 8 5 4 8 10 23 8 4 3 16 18 10 7 13 11 16 30 22 25 24 24 13 12 20 17 15
17 19 9 7 6 5 4 5 2 8 11 17 19 21 14 10 4 7 6 5 7 10 4 5 11 21 13 10 5 19 10 7 14 16 16 16 12 33 29 9 19 23 23 13 21
19 4 5 6 5 5 4 0 7 5 11 16 23 12 15 21 5 7 6 3 1 2 4 6 7 3 17 13 15 6 9 12 15 14 6 11 10 23 19 22 21 17 17 11 8
4 4 5 4 0 5 2 5 5 9 19 18 15 8 14 20 12 14 9 2 4 5 4 1 9 14 14 11 15 13 10 12 7 8 14 10 25 24 26 31 23 20 18 20 16
3 4 4 5 4 4 3 6 7 14 16 8 12 13 17 15 15 18 7 4 4 4 5 1 4 7 11 9 12 8 6 5 1 5 7 11 19 36 6 19 19 24 29 25 22
2 3 4 5 4 2 2 4 7 17 17 13 11 9 9 17 18 17 7 4 6 3 3 3 0 6 7 9 8 4 5 6 7 5 9 2 18 14 22 5 9 22 26 28 21
2 4 6 4 1 3 5 12 12 13 11 5 10 5 16 15 12 9 14 3 6 4 5 1 1 7 8 6 9 8 2 1 4 1 9 11 19 2 12 11 14 8 13 19 22
2 3 5 4 1 5 6 8 7 11 14 16 16 15 13 11 9 9 13 6 5 4 10 2 2 5 5 8 5 3 3 2 2 2 1 17 14 11 14 15 16 19 15 12 9
2 5 4 4 5 4 7 9 14 13 13 12 10 10 15 8 6 7 8 12 5 5 3 4 4 4 4 7 9 8 8 7 3 1 4 6 14 8 9 10 14 13 17 16 15
3 2 4 4 7 9 10 5 12 15 12 9 11 13 14 12 9 9 12 4 8 3 4 3 4 4 5 11 13 8 16 14 11 9 13 12 15 7 10 9 12 14 16 15 14
3 5 3 4 3 2 5 9 12 16 10 14 13 10 7 13 17 17 14 11 14 15 13 5 2 2 3 5 5 8 16 15 8 9 11 11 9 7 11 4 4 13 10 16 11
Wind_Direction
5 359 359 359 358 357 353 351 344 338 343 344 344 343 338 332 313 309 260 237 254 285 311 296 297 280 284 229 247 242 240 242 248 250 261 278 316 188 173 152 353 177 139 135 142
10 3 356 354 352 349 347 345 341 337 334 335 336 337 334 325 304 279 238 252 252 256 275 271 282 281 264 231 232 227 236 236 250 258 271 288 309 152 128 188 347 74 115 131 139
6 3 3 357 346 341 339 334 333 332 333 329 328 332 331 317 300 287 54 335 326 301 265 253 265 272 262 250 232 240 237 242 246 254 261 283 295 276 141 172 200 148 144 146 151
1 359 357 354 354 345 332 330 328 328 325 324 322 327 322 295 255 103 33 359 353 319 243 234 237 249 260 242 236 236 243 240 249 259 275 282 283 302 222 192 191 157 165 158 160
0 357 355 351 350 344 337 330 325 316 311 310 308 323 332 277 257 298 311 327 342 337 315 220 225 230 240 243 250 237 235 243 243 252 257 266 266 237 290 241 254 89 151 159 160
357 356 354 348 346 341 334 328 319 312 300 296 303 312 267 267 276 315 326 326 320 330 316 304 231 230 269 241 246 262 252 249 252 246 245 250 249 228 270 281 304 162 162 162 165
355 352 350 348 343 337 329 323 311 302 297 289 290 276 267 251 311 300 310 304 294 285 288 289 295 259 223 255 246 256 264 269 260 246 250 241 261 229 238 268 272 257 185 172 177
351 348 346 343 339 333 325 317 305 296 292 282 278 269 258 273 270 307 296 296 284 269 267 283 290 283 240 255 251 262 269 252 249 250 246 210 242 232 229 235 247 257 236 198 187
347 345 342 338 336 329 322 314 299 284 278 265 247 207 271 259 240 238 275 270 298 291 275 277 282 256 236 227 248 240 237 237 252 234 242 228 237 217 211 228 227 233 233 225 203
344 343 339 337 332 327 322 312 293 291 258 219 212 303 250 243 232 190 188 264 312 325 303 267 225 221 211 200 214 213 225 232 238 230 233 250 234 218 211 222 227 229 228 219 206
344 343 340 335 329 324 327 325 8 359 23 279 255 234 268 241 245 211 157 12 273 245 246 263 258 219 203 205 217 223 227 230 235 229 213 235 244 219 206 216 238 223 222 224 215
342 340 337 332 324 320 316 299 349 283 294 273 253 255 249 254 268 258 141 199 255 267 223 257 256 263 236 219 221 216 226 237 242 214 234 234 235 232 220 218 223 235 225 218 213
338 338 336 331 317 327 326 339 314 354 287 279 243 243 249 217 244 261 208 158 234 261 264 234 257 286 259 233 222 227 215 229 227 223 219 239 250 232 233 232 223 223 225 210 213
334 334 336 339 351 340 290 5 2 9 310 274 236 277 226 207 273 317 189 178 218 275 238 243 232 244 266 248 227 230 222 232 232 239 225 212 240 235 235 243 232 220 220 219 198
325 327 326 331 271 259 299 327 344 50 312 272 42 340 352 309 301 88 189 135 235 232 244 209 223 215 226 244 247 244 234 236 234 235 238 243 243 231 227 233 231 234 211 203 211
318 316 319 308 303 262 283 317 22 32 253 286 46 345 329 306 263 24 21 87 248 234 257 251 294 286 224 240 238 270 280 277 236 230 242 234 230 243 231 230 228 215 216 213 222
318 311 304 284 247 286 313 2 30 184 310 300 340 355 327 360 47 3 297 305 215 210 227 260 234 234 247 304 234 246 262 230 237 218 218 225 225 238 229 235 224 213 221 210 222
316 311 267 242 244 255 9 40 97 277 307 307 338 334 321 356 345 305 292 341 71 328 290 252 242 195 193 190 241 213 224 232 215 205 209 239 226 231 232 267 221 224 245 233 228
317 284 270 249 249 142 93 161 218 300 325 335 321 321 323 323 11 305 222 182 195 43 2 330 267 234 182 184 166 186 211 241 264 284 244 205 227 278 253 252 240 232 230 234 238
320 298 266 245 347 80 133 227 269 301 301 301 309 290 325 319 341 317 343 151 169 196 239 277 289 261 174 179 193 213 163 217 196 206 219 215 216 240 218 230 243 255 256 252 256
290 310 269 98 65 77 196 231 293 288 300 318 304 301 301 304 320 308 348 72 302 217 226 206 252 313 193 191 161 172 220 190 164 212 206 218 236 226 206 235 220 233 243 255 254
245 297 262 65 38 208 218 242 290 302 290 301 301 301 302 324 304 307 302 280 220 294 258 192 244 288 291 53 31 70 207 223 227 165 211 231 257 191 264 284 245 231 229 230 232
267 263 283 121 220 270 277 298 305 309 335 308 296 300 293 315 315 329 310 211 240 54 308 42 326 324 283 120 27 61 24 323 235 249 212 194 252 48 18 33 13 319 238 233 236
321 322 312 26 284 296 309 304 297 313 313 315 308 305 309 315 305 295 331 301 208 275 281 102 248 192 225 255 278 286 337 291 314 193 83 215 223 61 26 8 3 2 22 33 31
262 253 219 284 300 266 292 291 304 308 304 318 321 331 318 313 315 346 350 334 271 259 226 174 249 213 241 201 241 275 284 286 250 270 234 358 265 147 35 356 360 349 356 9 21
245 235 316 276 280 278 287 285 287 293 312 315 311 325 335 312 294 304 313 330 292 303 237 214 273 332 283 253 219 245 251 235 248 245 266 266 283 260 96 46 353 351 352 342 7
237 265 249 260 300 301 252 269 277 291 287 289 300 310 283 280 291 311 262 262 241 261 287 211 190 340 276 27 318 264 234 220 209 206 227 265 238 357 350 341 25 325 332 330 349